Temp
70 69 70 70 71 71 70 70 71 70 70 70 70 70 71 71 71 71 71 70 70 71 72 71 69 70 70 71 70 70 70 70 68 67 66 68 66 67 69 69 69 70 71 70 70 66 64 62 67 75 77 77 77 77 79 81 81 79 78 79 81 80 78
71 70 71 71 69 69 67 68 69 70 68 68 69 69 70 70 70 69 69 69 69 69 71 70 69 69 68 68 68 68 68 67 68 67 66 65 65 65 64 65 67 69 70 70 70 70 65 63 64 67 69 73 74 76 78 79 80 80 80 80 81 79 79
70 70 70 69 69 69 68 68 68 68 69 68 68 69 69 70 69 69 69 68 68 68 68 68 68 68 68 68 67 68 67 66 66 66 64 63 64 64 64 64 64 64 65 66 67 66 67 66 62 64 67 66 65 71 75 76 78 80 81 81 80 81 78
69 69 68 68 69 69 69 69 68 68 68 67 68 67 68 69 68 68 68 68 67 67 67 67 67 68 68 68 68 68 66 65 65 65 65 63 63 62 62 63 63 62 61 60 62 63 62 61 62 62 65 69 69 67 71 74 74 78 80 80 81 81 79
70 69 68 68 70 70 69 68 69 68 67 67 67 66 66 67 67 67 67 67 67 66 66 67 67 67 68 69 67 67 66 65 65 65 64 62 62 62 61 62 63 62 62 61 61 61 60 60 60 60 62 66 67 69 71 71 75 75 78 80 83 83 81
70 70 69 68 69 69 69 68 67 66 66 65 65 65 65 65 66 65 65 65 66 66 66 66 67 67 67 69 67 66 65 64 64 64 64 62 62 61 61 63 63 64 63 62 61 60 60 60 60 58 61 63 60 63 68 71 71 76 78 79 82 83 84
68 69 68 68 68 68 68 66 66 65 65 64 64 64 65 66 66 66 65 65 66 66 66 66 66 66 67 69 66 65 65 65 65 64 64 63 63 63 64 63 64 65 65 64 63 62 60 58 57 56 56 58 61 61 67 69 72 70 74 78 79 80 78
68 68 68 67 66 66 66 65 66 66 65 65 65 65 66 65 65 65 65 65 65 65 66 65 66 66 66 67 66 64 65 65 65 64 64 64 63 63 63 63 64 66 65 65 65 63 63 61 58 57 56 53 55 59 60 65 67 67 68 71 75 75 78
68 67 67 66 66 67 66 65 65 65 65 65 65 65 65 65 65 65 66 65 65 65 65 66 65 66 65 65 65 64 63 65 65 64 64 64 63 63 63 64 64 64 64 64 64 64 65 63 62 61 59 56 52 50 56 56 60 62 68 66 71 74 74
66 65 65 66 66 66 65 65 64 64 65 65 65 65 65 65 65 65 65 65 65 65 64 65 65 65 65 65 64 63 62 64 64 64 64 63 63 64 63 63 63 64 63 63 63 63 63 62 62 62 62 59 57 52 50 51 55 56 62 67 64 69 73
66 66 66 65 65 65 65 65 65 64 64 65 65 65 65 65 65 65 65 64 65 64 64 64 65 65 65 64 64 64 64 64 64 64 64 64 63 63 63 63 63 63 63 62 62 63 62 62 62 62 62 62 61 56 54 51 52 57 59 63 66 65 69
66 66 65 65 65 64 64 64 64 64 65 65 65 65 65 65 65 64 65 65 64 64 64 64 64 64 64 63 63 63 64 64 64 63 64 63 63 63 62 62 62 62 62 62 62 63 63 62 61 61 61 61 60 59 56 55 51 57 61 58 62 66 66
66 65 65 65 64 64 64 64 64 64 64 65 65 65 65 65 65 65 65 65 64 64 64 64 64 64 63 63 63 62 63 64 63 63 63 64 63 62 62 62 61 61 61 62 61 62 62 61 60 60 60 59 59 58 57 55 52 52 59 59 60 62 65
64 65 64 64 64 63 64 64 64 64 65 64 65 64 64 65 66 65 65 65 65 64 64 62 63 63 63 62 63 62 63 63 62 62 62 62 63 62 62 62 62 61 62 61 61 61 61 60 60 59 60 60 58 58 57 54 52 52 56 60 60 61 63
65 64 63 64 63 64 64 64 64 65 63 64 65 65 65 65 66 65 65 65 64 64 63 63 63 63 62 61 62 62 62 62 61 62 61 61 61 61 61 61 61 61 61 60 59 60 60 58 58 58 58 57 58 58 58 55 53 52 51 56 57 61 61
64 63 63 63 63 63 63 64 65 64 64 64 65 65 65 65 65 65 65 64 64 63 62 62 62 62 61 61 62 61 62 61 61 60 60 60 61 61 60 60 60 60 59 58 57 56 57 56 56 56 55 56 55 56 57 57 54 51 51 52 56 57 59
63 63 62 62 62 63 64 64 65 64 65 65 64 64 65 65 64 64 63 64 63 62 61 61 61 61 61 61 61 61 62 61 61 61 61 61 61 61 60 59 59 59 58 56 55 54 54 54 53 54 53 54 54 54 55 55 55 53 52 51 54 56 58
62 62 62 62 62 63 63 64 65 65 64 64 65 64 64 65 64 63 62 62 62 61 60 60 59 59 60 60 61 61 61 62 61 61 61 61 60 60 60 59 60 59 57 54 53 52 52 51 53 53 52 53 54 54 54 54 54 54 53 51 53 56 58
62 62 62 62 62 63 64 64 64 64 65 64 64 64 63 64 64 63 63 62 61 60 59 58 57 57 58 59 60 60 61 61 61 62 61 61 61 61 59 60 60 58 56 53 52 51 52 51 52 52 52 53 53 53 52 52 53 53 52 52 52 52 55
62 62 62 62 63 64 64 64 64 64 65 64 64 63 64 63 63 63 62 61 59 58 57 56 55 55 56 58 59 61 61 61 61 61 61 61 61 61 60 60 59 57 55 54 53 52 52 51 51 51 52 52 53 51 50 50 51 50 50 49 50 51 52
63 63 63 63 63 63 63 64 63 64 64 63 63 64 63 63 62 63 61 60 58 57 56 55 53 53 54 55 57 61 61 60 60 61 60 61 61 60 60 60 59 57 55 55 54 54 53 51 51 51 51 52 50 49 48 49 49 48 47 47 47 48 50
63 63 64 63 63 63 63 63 64 64 63 62 62 64 64 63 63 62 61 59 58 56 54 52 50 49 50 53 55 60 60 61 60 60 60 60 60 60 60 59 59 57 56 54 51 51 50 49 51 49 50 50 49 48 47 47 47 47 47 47 46 48 48
64 63 63 63 63 63 63 62 62 61 62 62 62 62 62 62 63 61 60 59 57 55 53 51 45 42 42 48 52 57 60 60 60 60 59 58 59 59 59 59 58 55 53 53 52 48 46 47 48 49 49 49 48 47 47 46 46 46 46 45 46 46 45
64 63 63 63 62 63 62 61 61 61 61 61 61 61 61 61 60 60 59 57 56 54 52 49 41 40 40 40 48 53 58 59 60 59 59 58 58 58 59 59 58 58 58 55 57 48 47 46 45 45 45 46 46 47 46 45 46 46 45 44 45 45 44
63 62 63 63 63 63 62 61 60 60 60 60 60 60 59 60 60 60 58 57 55 53 52 43 40 40 41 40 42 48 58 59 59 60 59 59 60 59 58 57 58 58 58 57 57 54 51 47 45 45 44 44 44 44 43 46 46 45 45 44 44 44 45
63 63 62 62 61 60 60 60 61 60 59 60 60 59 59 59 59 59 59 57 54 53 53 43 40 40 41 40 40 44 60 59 59 59 59 59 60 59 59 58 57 57 57 55 56 53 52 51 47 46 47 47 48 47 44 43 44 47 48 46 44 44 45
62 61 61 61 62 62 61 61 61 61 61 60 59 58 58 58 58 58 58 57 55 53 52 44 40 40 41 39 40 42 60 59 59 60 59 59 60 59 58 56 55 55 56 56 54 51 51 50 49 51 52 52 52 51 48 47 46 45 47 48 46 44 47
62 63 63 63 62 62 61 61 61 61 61 60 59 59 58 57 57 58 58 58 55 53 50 41 41 40 40 40 40 44 60 60 60 60 60 60 60 59 57 56 56 55 55 55 53 48 48 48 49 50 51 51 52 52 52 52 52 51 50 49 48 48 48
63 63 62 62 61 61 60 60 60 61 61 61 60 60 59 59 57 57 58 58 56 54 51 40 40 40 40 40 41 57 59 59 59 60 60 59 61 61 60 58 56 55 55 54 50 42 43 46 49 50 49 50 51 51 52 51 47 46 48 49 49 48 47
62 62 62 61 61 60 60 60 61 62 60 60 60 59 59 58 59 57 57 57 56 55 53 45 40 40 40 40 45 57 58 58 58 58 59 59 60 61 59 58 57 56 54 54 47 41 41 42 49 50 49 49 50 50 51 52 48 45 44 43 42 42 42
63 62 62 61 60 60 60 61 61 62 61 60 60 60 61 60 59 58 56 55 56 55 53 47 40 41 41 40 45 55 58 56 56 57 59 60 60 61 59 51 54 56 53 52 44 41 41 44 49 49 48 49 49 48 49 50 49 48 46 45 45 44 43
63 62 62 61 60 60 60 61 61 62 62 62 61 62 62 60 59 59 57 56 53 55 55 50 42 41 41 41 46 54 57 56 54 54 57 58 59 60 59 56 49 49 51 48 42 42 40 44 48 49 49 50 48 48 48 48 47 47 48 49 49 48 47
63 62 62 61 61 61 62 61 61 62 63 64 63 62 62 60 59 59 59 58 56 56 56 54 49 41 41 42 41 50 56 53 52 53 55 58 57 58 58 58 55 45 43 43 42 41 41 40 46 49 51 51 49 47 50 48 49 49 48 48 47 46 45
62 62 62 61 61 61 62 61 61 61 61 62 61 60 60 60 60 59 59 59 58 57 56 56 50 41 43 42 41 43 54 53 52 52 54 57 57 56 57 57 58 49 44 43 42 41 41 41 41 47 52 52 51 48 44 49 50 47 48 46 44 44 44
62 62 62 62 61 60 61 62 62 62 62 61 60 59 60 61 60 60 60 60 59 58 55 51 57 45 42 43 42 40 50 53 51 52 52 55 56 56 56 57 56 50 43 43 41 41 41 41 40 47 53 45 41 40 45 52 52 50 47 45 42 42 42
61 62 61 61 61 60 61 61 61 61 60 60 60 59 59 60 60 60 60 61 61 61 59 54 46 53 44 42 42 42 39 45 43 51 52 53 55 55 57 56 55 48 43 42 41 40 42 41 44 52 44 41 41 40 43 54 52 49 46 43 41 39 39
62 61 61 62 61 61 61 61 62 62 62 62 61 61 61 61 61 60 60 60 61 61 61 60 47 45 51 44 43 41 41 39 39 50 52 54 56 56 55 55 52 44 41 41 41 41 42 43 50 44 42 41 41 44 54 53 52 48 45 41 39 38 37
MSLP
1019.47 1019.78 1019.91 1020.03 1020.03 1020.22 1020.47 1020.54 1020.54 1020.83 1021.07 1021.15 1021.22 1021.27 1021.18 1021.10 1021.03 1020.98 1020.98 1020.98 1020.91 1020.78 1020.51 1020.51 1020.74 1020.66 1020.54 1020.39 1020.27 1020.15 1020.10 1019.95 1019.95 1019.91 1019.78 1019.30 1019.34 1018.98 1018.54 1018.47 1018.27 1017.98 1017.62 1017.47 1017.39 1017.62 1017.54 1017.22 1015.42 1014.03 1013.62 1013.42 1013.27 1013.07 1012.66 1012.30 1011.98 1012.07 1012.07 1011.91 1011.66 1011.62 1011.71
1019.59 1019.83 1019.95 1020.07 1020.34 1020.54 1020.86 1020.86 1020.86 1021.03 1021.47 1021.66 1021.66 1021.59 1021.47 1021.39 1021.34 1021.30 1021.30 1021.27 1021.22 1021.15 1020.91 1020.95 1020.98 1020.86 1020.86 1020.74 1020.66 1020.54 1020.47 1020.47 1020.15 1020.10 1020.10 1019.98 1019.83 1019.71 1019.47 1019.07 1018.74 1018.27 1017.86 1017.59 1017.42 1017.27 1017.59 1017.51 1016.54 1015.86 1014.98 1013.91 1013.66 1013.18 1012.62 1012.27 1012.03 1011.71 1011.71 1011.59 1011.47 1011.39 1011.27
1019.86 1019.98 1020.10 1020.39 1020.47 1020.59 1020.91 1021.03 1021.10 1021.30 1021.47 1021.74 1021.86 1021.83 1021.78 1021.62 1021.62 1021.54 1021.51 1021.54 1021.54 1021.47 1021.39 1021.34 1021.30 1021.15 1021.07 1020.95 1020.95 1020.74 1020.83 1020.74 1020.66 1020.59 1020.66 1020.66 1020.59 1020.30 1020.15 1019.78 1019.51 1019.07 1018.66 1018.42 1018.10 1017.91 1017.54 1017.47 1017.59 1016.78 1016.03 1015.66 1015.10 1013.78 1013.18 1012.78 1012.18 1011.78 1011.47 1011.18 1011.07 1011.10 1011.07
1020.15 1020.27 1020.39 1020.47 1020.51 1020.62 1020.83 1021.03 1021.34 1021.59 1021.83 1021.98 1022.03 1022.10 1022.03 1021.91 1021.86 1021.83 1021.78 1021.78 1021.78 1021.74 1021.71 1021.62 1021.59 1021.47 1021.27 1021.07 1021.07 1020.95 1021.07 1021.03 1020.98 1020.78 1020.78 1020.95 1020.86 1020.74 1020.66 1020.34 1020.03 1019.91 1019.78 1019.51 1019.07 1018.78 1018.62 1018.22 1017.74 1017.18 1016.62 1015.98 1015.39 1014.74 1013.74 1013.27 1013.03 1012.34 1011.66 1011.03 1010.66 1010.59 1010.71
1020.22 1020.34 1020.51 1020.54 1020.54 1020.66 1020.91 1021.22 1021.42 1021.74 1022.07 1022.15 1022.22 1022.30 1022.39 1022.22 1022.15 1022.10 1022.07 1022.03 1022.03 1022.07 1022.03 1021.91 1021.83 1021.74 1021.51 1021.22 1021.30 1021.27 1021.27 1021.27 1021.22 1021.03 1020.98 1021.15 1021.07 1020.91 1020.83 1020.59 1020.34 1020.22 1020.07 1019.98 1019.91 1019.66 1019.39 1018.98 1018.66 1018.07 1017.39 1016.39 1015.71 1015.07 1014.22 1013.74 1013.10 1012.66 1011.95 1011.22 1010.39 1010.07 1010.15
1020.39 1020.47 1020.66 1020.86 1020.86 1021.03 1021.15 1021.39 1021.74 1022.07 1022.22 1022.42 1022.51 1022.59 1022.66 1022.59 1022.47 1022.47 1022.42 1022.42 1022.34 1022.34 1022.30 1022.18 1022.07 1021.98 1021.74 1021.39 1021.59 1021.54 1021.51 1021.51 1021.42 1021.27 1021.22 1021.27 1021.22 1021.18 1021.03 1020.71 1020.47 1020.18 1020.15 1020.18 1020.18 1020.07 1019.74 1019.51 1019.10 1018.71 1017.95 1017.62 1017.10 1015.98 1014.86 1014.18 1013.42 1012.54 1011.98 1011.39 1010.54 1009.98 1009.78
1020.95 1020.98 1021.10 1021.27 1021.39 1021.47 1021.66 1021.98 1022.10 1022.39 1022.59 1022.74 1022.86 1022.91 1022.86 1022.78 1022.78 1022.78 1022.74 1022.71 1022.66 1022.59 1022.54 1022.47 1022.27 1022.18 1021.98 1021.62 1021.78 1021.78 1021.74 1021.66 1021.54 1021.42 1021.34 1021.39 1021.30 1021.18 1020.95 1020.78 1020.47 1020.15 1020.03 1019.98 1019.98 1019.91 1019.91 1019.78 1019.62 1019.39 1018.83 1018.03 1017.51 1016.59 1015.42 1014.51 1013.62 1013.42 1012.34 1011.71 1011.15 1010.66 1010.71
1021.27 1021.34 1021.42 1021.66 1021.83 1021.98 1022.15 1022.30 1022.42 1022.47 1022.66 1022.86 1022.98 1023.10 1023.07 1023.07 1022.98 1022.98 1022.98 1022.95 1022.91 1022.83 1022.71 1022.62 1022.42 1022.30 1022.18 1021.98 1021.95 1022.03 1021.95 1021.86 1021.66 1021.59 1021.51 1021.39 1021.42 1021.30 1021.10 1020.86 1020.51 1020.15 1020.07 1020.03 1019.86 1019.83 1019.74 1019.74 1019.83 1019.54 1019.22 1018.71 1017.59 1017.03 1016.27 1015.51 1014.83 1014.34 1013.74 1012.91 1012.30 1011.74 1011.10
1021.62 1021.74 1021.95 1022.07 1022.18 1022.22 1022.34 1022.59 1022.74 1022.83 1022.95 1023.07 1023.22 1023.27 1023.34 1023.30 1023.27 1023.15 1023.15 1023.18 1023.10 1022.98 1022.91 1022.74 1022.62 1022.47 1022.39 1022.27 1022.18 1022.22 1022.18 1021.98 1021.78 1021.74 1021.62 1021.51 1021.47 1021.34 1021.18 1021.03 1020.71 1020.47 1020.42 1020.47 1020.15 1019.98 1019.78 1019.74 1019.62 1019.51 1019.27 1019.10 1018.98 1018.10 1017.03 1016.39 1015.74 1015.07 1014.59 1013.95 1012.91 1012.51 1012.03
1021.98 1022.15 1022.22 1022.27 1022.39 1022.54 1022.71 1022.83 1022.98 1023.15 1023.22 1023.30 1023.42 1023.47 1023.51 1023.51 1023.47 1023.39 1023.39 1023.34 1023.30 1023.18 1023.10 1022.98 1022.83 1022.66 1022.54 1022.47 1022.42 1022.42 1022.39 1022.15 1021.95 1021.91 1021.83 1021.74 1021.62 1021.42 1021.34 1021.18 1020.95 1020.66 1020.78 1020.71 1020.51 1020.42 1020.27 1020.03 1019.83 1019.59 1019.39 1019.18 1018.98 1019.03 1018.27 1017.42 1016.30 1015.78 1014.95 1014.66 1014.03 1012.78 1012.59
1022.18 1022.30 1022.39 1022.62 1022.71 1022.78 1022.86 1022.98 1023.15 1023.30 1023.47 1023.54 1023.59 1023.62 1023.62 1023.62 1023.62 1023.59 1023.54 1023.51 1023.47 1023.39 1023.30 1023.18 1022.98 1022.91 1022.74 1022.71 1022.62 1022.54 1022.54 1022.30 1022.15 1022.07 1021.98 1021.91 1021.83 1021.66 1021.59 1021.34 1021.18 1021.07 1021.07 1020.86 1020.66 1020.54 1020.39 1020.22 1020.07 1019.83 1019.54 1019.18 1018.98 1018.95 1018.71 1018.34 1016.98 1016.30 1015.51 1014.95 1014.62 1013.66 1013.03
1022.39 1022.59 1022.74 1022.86 1022.91 1023.03 1023.18 1023.34 1023.47 1023.59 1023.66 1023.66 1023.71 1023.74 1023.71 1023.71 1023.74 1023.74 1023.71 1023.66 1023.54 1023.42 1023.39 1023.30 1023.18 1023.07 1022.98 1022.91 1022.83 1022.71 1022.62 1022.42 1022.30 1022.22 1022.07 1022.03 1021.95 1021.86 1021.74 1021.54 1021.39 1021.39 1021.34 1021.07 1020.78 1020.59 1020.39 1020.34 1020.27 1020.10 1019.86 1019.66 1019.39 1019.18 1018.91 1018.51 1017.91 1016.03 1016.27 1015.59 1014.83 1014.51 1013.78
1022.74 1022.83 1022.91 1022.98 1023.15 1023.27 1023.42 1023.59 1023.74 1023.83 1023.91 1023.86 1023.95 1023.91 1023.86 1023.86 1023.86 1023.83 1023.78 1023.66 1023.59 1023.51 1023.51 1023.47 1023.39 1023.27 1023.18 1023.10 1023.03 1022.95 1022.83 1022.62 1022.54 1022.47 1022.34 1022.22 1022.15 1022.10 1021.98 1021.74 1021.74 1021.74 1021.59 1021.27 1021.03 1020.83 1020.66 1020.62 1020.66 1020.51 1020.27 1020.10 1019.86 1019.59 1019.30 1018.95 1018.47 1017.27 1016.30 1016.22 1015.47 1014.71 1014.30
1023.07 1023.10 1023.22 1023.39 1023.51 1023.62 1023.74 1023.86 1023.95 1024.03 1024.06 1024.10 1024.06 1024.10 1024.06 1024.03 1023.98 1023.91 1023.78 1023.74 1023.66 1023.62 1023.62 1023.71 1023.59 1023.47 1023.42 1023.34 1023.22 1023.27 1023.03 1022.86 1022.83 1022.71 1022.59 1022.47 1022.39 1022.30 1022.18 1021.91 1021.86 1021.86 1021.71 1021.51 1021.30 1021.15 1021.07 1021.07 1020.95 1020.62 1020.27 1019.98 1019.78 1019.54 1019.47 1019.22 1018.78 1017.66 1016.59 1016.22 1015.95 1015.03 1014.34
1023.22 1023.39 1023.51 1023.62 1023.74 1023.86 1024.03 1024.15 1024.19 1024.27 1024.34 1024.34 1024.27 1024.22 1024.22 1024.19 1024.03 1023.98 1023.95 1023.86 1023.86 1023.83 1023.86 1023.86 1023.83 1023.71 1023.71 1023.54 1023.42 1023.39 1023.27 1023.15 1023.10 1022.95 1022.83 1022.74 1022.62 1022.54 1022.39 1022.18 1022.07 1021.98 1021.91 1021.86 1021.74 1021.54 1021.47 1021.47 1021.39 1020.98 1020.66 1020.39 1019.95 1019.62 1019.42 1019.34 1018.86 1018.51 1017.30 1016.27 1015.95 1015.47 1014.62
1023.54 1023.66 1023.78 1023.86 1024.03 1024.15 1024.27 1024.34 1024.34 1024.39 1024.43 1024.51 1024.46 1024.39 1024.34 1024.27 1024.22 1024.06 1024.03 1024.06 1024.15 1024.22 1024.22 1024.19 1024.10 1023.98 1023.95 1023.83 1023.62 1023.54 1023.42 1023.39 1023.34 1023.18 1023.10 1022.95 1022.78 1022.66 1022.54 1022.42 1022.30 1022.27 1022.34 1022.42 1022.42 1022.39 1022.22 1022.22 1021.98 1021.71 1021.42 1021.03 1020.71 1020.22 1019.74 1019.34 1018.98 1018.39 1017.78 1016.83 1016.15 1015.51 1014.95
1023.78 1023.91 1024.06 1024.19 1024.31 1024.34 1024.43 1024.51 1024.58 1024.58 1024.58 1024.55 1024.58 1024.62 1024.46 1024.39 1024.34 1024.31 1024.22 1024.22 1024.43 1024.55 1024.58 1024.55 1024.43 1024.31 1024.19 1024.06 1023.86 1023.74 1023.59 1023.51 1023.39 1023.27 1023.18 1023.03 1022.91 1022.78 1022.74 1022.62 1022.47 1022.47 1022.59 1022.74 1022.86 1022.95 1022.86 1022.78 1022.54 1022.18 1021.91 1021.47 1021.07 1020.59 1020.10 1019.74 1019.34 1018.91 1018.15 1017.07 1016.10 1015.78 1015.03
1024.03 1024.19 1024.34 1024.46 1024.58 1024.58 1024.67 1024.67 1024.70 1024.70 1024.74 1024.74 1024.70 1024.67 1024.62 1024.46 1024.46 1024.51 1024.58 1024.62 1024.74 1024.94 1025.03 1024.98 1024.94 1024.74 1024.51 1024.34 1024.06 1023.86 1023.74 1023.62 1023.51 1023.39 1023.22 1023.03 1023.03 1022.98 1022.83 1022.74 1022.66 1022.71 1022.98 1023.30 1023.39 1023.39 1023.27 1023.10 1022.71 1022.42 1022.07 1021.66 1021.15 1020.62 1020.18 1019.83 1019.30 1018.83 1018.10 1017.59 1016.54 1015.74 1015.30
1024.27 1024.43 1024.55 1024.67 1024.70 1024.79 1024.79 1024.82 1024.91 1024.91 1024.86 1024.91 1024.91 1024.82 1024.82 1024.74 1024.67 1024.74 1024.91 1025.10 1025.19 1025.39 1025.46 1025.51 1025.43 1025.31 1025.03 1024.74 1024.43 1024.10 1023.91 1023.83 1023.59 1023.47 1023.34 1023.18 1023.15 1023.10 1023.07 1022.91 1022.78 1023.18 1023.54 1023.59 1023.66 1023.54 1023.34 1023.07 1022.78 1022.42 1022.03 1021.59 1021.15 1020.66 1020.42 1019.98 1019.47 1018.78 1018.42 1017.78 1017.18 1016.18 1015.59
1024.39 1024.55 1024.70 1024.79 1024.86 1024.91 1024.98 1025.03 1025.03 1025.06 1025.03 1024.98 1024.94 1024.91 1024.91 1024.94 1025.03 1025.06 1025.31 1025.55 1025.67 1025.79 1025.91 1025.98 1025.94 1025.79 1025.46 1025.15 1024.74 1024.22 1023.98 1023.91 1023.66 1023.66 1023.51 1023.42 1023.34 1023.30 1023.22 1023.07 1023.10 1023.54 1023.66 1023.66 1023.71 1023.54 1023.30 1023.07 1022.78 1022.47 1021.98 1021.59 1021.15 1020.95 1020.54 1020.15 1019.62 1019.18 1018.78 1018.27 1017.54 1016.98 1016.10
1024.51 1024.67 1024.79 1024.91 1025.03 1025.10 1025.15 1025.22 1025.27 1025.31 1025.27 1025.22 1025.15 1025.10 1025.10 1025.10 1025.22 1025.39 1025.62 1025.91 1026.10 1026.27 1026.39 1026.43 1026.51 1026.43 1026.03 1025.62 1025.03 1024.27 1024.15 1023.98 1023.83 1023.66 1023.62 1023.59 1023.47 1023.47 1023.34 1023.34 1023.39 1023.71 1023.86 1023.78 1023.71 1023.47 1023.22 1023.07 1022.83 1022.47 1022.07 1021.74 1021.47 1021.15 1020.83 1020.27 1019.83 1019.51 1018.98 1018.47 1017.95 1017.22 1016.54
1024.67 1024.79 1024.91 1025.06 1025.19 1025.31 1025.39 1025.39 1025.39 1025.34 1025.39 1025.43 1025.39 1025.34 1025.27 1025.27 1025.39 1025.55 1025.82 1026.15 1026.39 1026.67 1026.79 1026.91 1027.15 1027.22 1026.79 1026.15 1025.55 1024.43 1024.27 1024.06 1023.91 1023.78 1023.74 1023.71 1023.54 1023.66 1023.62 1023.54 1023.54 1023.78 1023.74 1023.62 1023.51 1023.27 1023.27 1023.42 1023.07 1022.62 1022.18 1022.03 1021.62 1021.39 1020.91 1020.42 1020.03 1019.39 1018.86 1018.39 1017.78 1017.22 1016.66
1024.67 1024.86 1025.03 1025.19 1025.31 1025.46 1025.55 1025.62 1025.67 1025.67 1025.62 1025.58 1025.62 1025.62 1025.67 1025.67 1025.67 1025.82 1026.10 1026.39 1026.67 1026.91 1027.15 1027.34 1027.70 1027.58 1027.46 1027.06 1026.19 1025.03 1024.34 1024.19 1023.98 1023.86 1023.95 1023.78 1023.74 1023.71 1023.59 1023.54 1023.47 1023.54 1023.34 1023.22 1022.98 1023.10 1023.30 1023.22 1023.15 1022.95 1022.62 1022.22 1021.83 1021.30 1020.86 1020.39 1019.83 1019.39 1018.91 1018.47 1017.95 1017.34 1016.86
1024.70 1024.94 1025.19 1025.34 1025.51 1025.58 1025.79 1025.91 1025.98 1025.98 1025.94 1025.91 1025.91 1025.91 1025.94 1026.03 1026.10 1026.19 1026.39 1026.70 1026.91 1027.10 1027.39 1027.79 1027.91 1027.62 1027.27 1026.98 1026.67 1025.79 1024.67 1024.31 1024.10 1023.98 1023.91 1023.78 1023.66 1023.47 1023.51 1023.54 1023.39 1023.18 1022.86 1022.86 1022.59 1022.95 1023.15 1023.15 1022.91 1022.66 1022.47 1022.18 1021.74 1021.30 1020.74 1020.27 1019.86 1019.34 1018.98 1018.54 1017.91 1017.54 1016.98
1024.79 1025.06 1025.27 1025.43 1025.55 1025.70 1025.86 1026.06 1026.22 1026.22 1026.19 1026.19 1026.19 1026.19 1026.31 1026.31 1026.31 1026.39 1026.55 1026.86 1027.15 1027.34 1027.58 1028.15 1027.94 1027.70 1027.39 1026.86 1026.62 1026.15 1024.74 1024.43 1024.19 1023.95 1023.91 1023.74 1023.39 1023.39 1023.47 1023.51 1023.18 1023.07 1022.95 1023.03 1022.71 1022.98 1023.03 1022.86 1022.66 1022.39 1021.98 1021.51 1021.07 1020.74 1020.59 1020.42 1019.83 1019.30 1018.91 1018.39 1017.91 1017.30 1016.78
1024.86 1025.10 1025.39 1025.62 1025.86 1026.06 1026.22 1026.27 1026.27 1026.31 1026.34 1026.34 1026.43 1026.51 1026.58 1026.58 1026.51 1026.46 1026.58 1026.98 1027.34 1027.58 1027.67 1028.19 1027.98 1027.74 1027.43 1027.06 1026.51 1026.10 1024.74 1024.51 1024.22 1024.15 1023.91 1023.74 1023.39 1023.39 1023.22 1023.30 1023.34 1023.27 1023.10 1022.95 1022.86 1023.27 1023.15 1022.74 1022.42 1022.07 1021.42 1020.95 1020.54 1020.27 1019.98 1019.74 1019.54 1019.22 1018.62 1018.22 1017.66 1017.07 1016.66
1025.22 1025.55 1025.79 1025.82 1025.74 1025.74 1025.98 1026.27 1026.31 1026.31 1026.34 1026.43 1026.58 1026.70 1026.79 1026.79 1026.70 1026.67 1026.67 1026.86 1027.39 1027.79 1027.98 1028.22 1028.06 1027.74 1027.43 1026.98 1026.39 1025.91 1024.74 1024.46 1024.27 1024.10 1023.98 1023.83 1023.47 1023.42 1023.39 1023.71 1023.71 1023.47 1023.39 1023.07 1023.18 1023.51 1023.30 1022.86 1022.34 1021.71 1021.07 1020.71 1020.39 1019.98 1019.62 1019.27 1018.98 1018.66 1018.47 1018.07 1017.59 1017.07 1016.34
1025.06 1025.27 1025.34 1025.51 1025.62 1025.91 1026.15 1026.27 1026.27 1026.31 1026.39 1026.51 1026.58 1026.67 1026.74 1026.86 1026.94 1026.86 1026.79 1026.91 1027.34 1027.86 1028.27 1028.39 1028.06 1027.79 1027.43 1027.03 1026.27 1025.51 1024.58 1024.43 1024.22 1024.10 1023.91 1023.74 1023.42 1023.39 1023.74 1023.91 1023.83 1023.62 1023.54 1023.27 1023.47 1023.78 1023.51 1023.07 1022.51 1021.59 1021.07 1020.71 1020.27 1019.83 1019.47 1019.07 1018.71 1018.47 1018.22 1017.91 1017.47 1016.86 1016.18
1024.98 1025.27 1025.46 1025.62 1025.82 1026.10 1026.31 1026.43 1026.46 1026.43 1026.46 1026.55 1026.62 1026.67 1026.79 1026.86 1027.03 1027.06 1026.98 1026.98 1027.22 1027.67 1028.19 1028.43 1028.19 1027.91 1027.51 1027.15 1026.43 1025.10 1024.70 1024.46 1024.31 1023.98 1023.83 1023.86 1023.39 1023.34 1023.42 1023.71 1023.78 1023.71 1023.66 1023.47 1023.59 1023.74 1023.62 1023.30 1022.39 1021.47 1021.03 1020.59 1020.07 1019.59 1019.22 1018.95 1018.74 1018.59 1018.34 1017.86 1017.34 1016.71 1016.03
1025.03 1025.27 1025.51 1025.70 1025.98 1026.27 1026.39 1026.43 1026.39 1026.34 1026.46 1026.51 1026.58 1026.67 1026.79 1026.91 1027.06 1027.22 1027.27 1027.15 1027.19 1027.58 1027.98 1028.34 1028.27 1028.03 1027.67 1027.39 1026.62 1025.31 1024.94 1024.74 1024.55 1024.27 1023.83 1023.83 1023.47 1023.30 1023.54 1023.83 1023.78 1023.78 1023.83 1023.62 1023.71 1023.66 1023.39 1023.18 1022.22 1021.51 1020.98 1020.47 1019.86 1019.51 1018.98 1018.51 1018.39 1018.22 1017.86 1017.34 1016.78 1016.18 1015.62
1025.06 1025.31 1025.55 1025.82 1026.15 1026.34 1026.39 1026.39 1026.43 1026.34 1026.34 1026.43 1026.46 1026.46 1026.55 1026.79 1027.03 1027.31 1027.51 1027.55 1027.39 1027.43 1027.86 1028.31 1028.31 1028.10 1027.79 1027.46 1026.98 1025.82 1025.19 1025.15 1024.94 1024.46 1023.74 1023.74 1023.51 1023.27 1023.47 1024.10 1023.86 1023.83 1023.91 1023.78 1023.74 1023.59 1023.22 1022.98 1022.27 1021.62 1021.07 1020.27 1019.78 1019.39 1018.86 1018.51 1018.10 1017.66 1017.15 1016.51 1015.95 1015.47 1014.95
1025.10 1025.34 1025.58 1025.98 1026.22 1026.34 1026.34 1026.39 1026.34 1026.27 1026.22 1026.22 1026.27 1026.27 1026.39 1026.58 1026.86 1027.10 1027.43 1027.67 1027.74 1027.43 1027.58 1028.03 1028.27 1028.10 1027.94 1027.62 1027.27 1026.31 1025.58 1025.55 1025.34 1025.03 1024.10 1023.74 1023.66 1023.39 1023.47 1023.62 1023.86 1023.95 1024.03 1023.95 1023.71 1023.34 1023.07 1022.83 1022.39 1021.59 1020.78 1020.07 1019.78 1019.34 1018.95 1018.59 1017.98 1017.22 1016.42 1015.78 1015.27 1014.86 1014.27
1025.15 1025.43 1025.74 1026.06 1026.15 1026.22 1026.22 1026.31 1026.27 1026.10 1025.98 1025.86 1026.03 1026.15 1026.31 1026.58 1026.79 1026.91 1027.06 1027.31 1027.55 1027.51 1027.46 1027.67 1028.06 1027.98 1027.91 1027.70 1027.55 1027.03 1026.06 1026.06 1025.86 1025.51 1024.74 1023.91 1023.86 1023.59 1023.51 1023.42 1023.42 1023.74 1023.91 1023.74 1023.51 1023.18 1022.86 1022.66 1022.42 1021.54 1020.71 1019.95 1019.62 1019.15 1018.71 1018.42 1017.74 1017.15 1016.51 1015.95 1015.30 1014.71 1014.10
1025.27 1025.51 1025.79 1025.98 1026.15 1026.15 1026.19 1026.27 1026.22 1026.19 1026.19 1026.22 1026.34 1026.43 1026.51 1026.43 1026.55 1026.70 1026.86 1026.94 1027.10 1027.31 1027.39 1027.39 1027.79 1027.86 1027.74 1027.67 1027.58 1027.39 1026.58 1026.46 1026.31 1025.98 1025.22 1024.15 1023.95 1023.78 1023.62 1023.54 1023.42 1023.71 1023.78 1023.59 1023.34 1022.98 1022.62 1022.30 1022.03 1021.62 1020.51 1019.86 1019.66 1019.27 1019.07 1018.18 1017.22 1016.98 1016.51 1015.95 1015.30 1014.54 1013.78
1025.39 1025.58 1025.79 1025.94 1026.10 1026.19 1026.22 1026.19 1026.15 1026.03 1026.06 1026.34 1026.51 1026.51 1026.39 1026.22 1026.27 1026.39 1026.43 1026.58 1026.67 1026.86 1027.27 1027.46 1027.19 1027.55 1027.62 1027.55 1027.46 1027.46 1027.06 1026.74 1026.70 1026.34 1025.58 1024.79 1024.27 1023.98 1023.86 1023.71 1023.62 1023.74 1023.66 1023.39 1023.10 1022.78 1022.30 1021.95 1021.54 1021.18 1020.10 1019.86 1019.51 1019.15 1018.91 1017.78 1017.18 1016.78 1016.34 1015.95 1015.30 1014.47 1013.59
1025.51 1025.67 1025.82 1025.91 1026.03 1026.19 1026.22 1026.22 1026.27 1026.22 1026.27 1026.27 1026.31 1026.31 1026.27 1026.22 1026.10 1026.15 1026.10 1026.06 1026.19 1026.31 1026.67 1027.34 1027.39 1027.19 1027.39 1027.43 1027.31 1027.19 1027.19 1026.98 1026.79 1026.43 1025.86 1025.27 1024.55 1024.27 1024.06 1023.95 1023.83 1023.71 1023.54 1023.27 1022.86 1022.47 1021.98 1021.51 1021.10 1020.39 1019.95 1019.66 1019.22 1018.71 1018.34 1017.18 1016.91 1016.54 1016.30 1015.91 1015.30 1014.54 1013.54
1025.51 1025.67 1025.79 1025.82 1025.91 1025.98 1026.03 1026.03 1025.94 1025.91 1025.94 1025.79 1025.79 1025.82 1025.79 1025.82 1025.82 1025.86 1025.86 1025.91 1025.91 1026.06 1026.15 1026.51 1027.31 1027.19 1027.15 1027.27 1027.10 1027.06 1026.91 1026.82 1026.74 1026.39 1026.06 1025.34 1024.70 1024.55 1024.46 1024.27 1023.95 1023.71 1023.42 1023.07 1022.62 1022.07 1021.59 1021.15 1020.71 1020.22 1019.86 1019.59 1018.98 1018.22 1017.47 1016.95 1016.71 1016.54 1016.34 1015.98 1015.30 1014.54 1013.62
Wind_Speed
7 7 6 6 6 6 6 6 5 6 8 8 8 7 7 7 6 6 7 6 6 6 6 7 7 7 7 7 7 8 7 7 7 7 8 8 9 8 10 10 10 10 9 10 10 10 10 13 14 12 10 10 11 11 11 12 10 9 10 9 9 7 5
6 5 5 5 6 6 6 5 5 6 7 7 7 7 7 7 7 7 7 7 7 7 6 6 6 7 8 7 8 8 8 8 7 9 8 8 9 9 10 9 10 9 9 8 9 9 9 11 12 13 14 14 13 11 10 11 12 10 10 10 10 10 8
5 5 5 5 5 5 6 6 5 6 5 6 6 7 7 7 7 7 7 8 8 7 7 7 7 8 7 7 7 7 8 8 7 7 7 8 8 8 9 9 9 9 9 8 8 10 10 9 11 13 13 15 15 13 12 12 13 13 12 11 10 10 8
6 5 5 5 5 5 5 6 6 5 6 6 5 5 7 7 7 8 7 7 7 7 7 7 7 7 6 6 7 7 8 8 7 7 7 7 8 7 8 7 8 8 9 10 10 10 11 11 11 12 12 13 14 16 13 14 15 16 15 13 12 9 9
5 5 5 6 5 6 6 6 5 5 5 5 5 6 6 7 7 7 7 7 7 7 7 6 6 7 6 6 7 7 6 7 7 7 7 8 9 7 8 7 7 7 7 8 9 9 9 10 11 12 12 13 14 12 12 13 15 14 14 15 13 10 8
5 6 6 6 6 6 5 6 6 5 5 5 5 6 7 7 6 7 7 7 6 6 7 7 6 7 7 6 7 7 7 7 7 7 7 8 8 8 7 7 6 6 6 6 7 8 8 9 10 11 11 12 13 14 13 14 12 12 13 13 14 11 10
6 7 6 6 6 6 6 6 6 6 5 6 6 6 6 6 6 7 7 7 7 7 7 7 6 7 7 6 7 7 7 6 7 8 7 7 7 7 6 6 7 6 6 6 7 7 8 9 10 11 12 11 11 13 12 12 13 14 12 12 15 14 8
6 7 7 7 7 7 7 7 6 5 6 6 6 6 6 6 6 6 7 7 7 7 7 7 6 6 7 6 7 7 7 6 7 7 7 7 7 8 8 8 7 7 7 8 7 7 7 8 8 10 11 14 13 11 12 12 13 13 15 15 16 16 14
7 7 7 7 7 7 8 7 7 6 6 6 6 6 6 6 6 6 6 7 7 7 7 8 8 7 7 6 7 7 8 6 6 9 7 8 8 8 8 9 7 7 8 8 8 8 8 8 8 9 10 10 12 14 13 13 12 12 14 14 14 15 16
8 9 8 9 9 8 8 7 7 7 6 6 5 5 5 6 6 6 6 6 7 7 7 8 8 7 7 6 7 8 8 8 7 8 7 8 8 8 8 9 8 7 8 8 8 8 9 9 8 9 9 9 10 11 13 14 13 13 13 13 14 14 15
8 9 9 9 8 7 7 7 6 6 6 5 5 4 5 5 6 6 6 6 6 7 7 7 7 8 7 6 7 7 7 7 7 7 7 8 8 8 8 8 8 8 8 8 8 8 8 8 9 10 10 10 9 11 11 13 15 12 13 13 12 15 16
8 9 9 8 8 8 8 7 7 6 6 5 5 5 5 6 6 5 5 6 6 7 7 7 7 7 7 7 7 6 8 8 7 7 7 8 7 8 9 9 9 8 9 9 9 8 8 8 9 9 10 10 10 10 11 12 14 12 11 14 14 14 16
9 8 8 8 8 8 8 8 7 7 6 5 5 5 5 6 6 6 6 6 7 7 8 7 7 7 7 7 7 7 8 9 9 8 8 8 7 8 9 9 10 9 9 9 9 9 9 10 10 10 9 10 10 10 11 11 13 17 13 12 15 16 17
10 9 9 9 9 8 8 7 7 6 6 6 5 6 6 6 6 6 7 7 8 8 8 8 7 7 7 8 7 7 8 9 9 8 8 9 9 8 9 9 9 10 9 10 9 9 9 10 10 9 9 9 10 10 10 12 14 16 15 12 13 15 15
9 9 9 9 8 8 7 7 6 6 6 6 6 6 6 5 6 7 7 9 9 9 9 9 8 7 8 8 7 6 7 9 9 9 8 9 9 8 9 9 10 10 11 11 11 11 10 11 12 12 12 12 11 11 11 12 13 14 18 16 14 14 16
9 9 9 8 9 8 7 7 6 6 6 6 5 5 6 6 7 7 8 9 9 9 10 9 8 8 8 8 8 8 8 8 8 8 9 9 9 8 9 9 10 10 9 11 12 11 12 12 12 12 13 12 12 13 13 13 13 15 18 17 16 15 14
10 9 9 8 8 8 7 7 6 6 6 5 6 5 6 7 7 8 9 10 10 10 10 10 9 9 9 8 8 8 8 8 8 8 8 9 9 9 10 9 10 11 11 11 11 11 11 12 12 12 13 12 12 13 12 13 13 14 15 19 17 16 15
9 9 9 8 8 8 7 6 6 7 6 6 6 6 6 6 8 9 9 10 10 10 11 11 10 10 9 9 8 8 8 8 8 8 8 8 10 9 10 10 11 12 12 12 11 11 11 14 12 12 13 13 13 13 12 13 15 14 16 17 17 15 15
10 10 9 8 8 7 7 7 6 6 6 6 6 6 7 7 8 9 10 10 10 10 11 11 11 11 10 9 8 7 7 8 7 8 9 9 9 9 10 10 11 12 11 12 12 13 13 15 14 14 16 15 14 14 14 15 14 15 15 16 16 17 15
9 9 8 8 7 7 7 7 7 6 6 6 6 7 7 8 8 8 9 9 10 11 11 11 11 11 10 9 8 7 7 7 7 7 8 9 9 10 10 10 11 11 12 12 14 14 14 15 14 16 16 16 15 15 16 14 15 15 15 15 15 14 16
9 8 8 8 7 7 7 7 6 6 6 7 7 7 7 8 7 8 8 9 10 10 11 11 11 11 10 9 8 7 7 7 8 8 8 8 9 9 11 11 11 11 11 12 12 13 14 13 13 15 15 15 15 17 15 15 15 14 14 14 14 15 14
9 9 8 8 8 7 7 6 6 7 6 7 6 7 7 8 8 8 9 9 10 10 10 10 9 9 10 10 9 7 7 7 7 8 8 9 9 10 10 10 11 11 10 7 7 8 7 6 12 15 16 16 17 15 15 15 14 16 15 15 15 14 14
9 9 8 8 8 7 7 6 6 7 7 7 7 7 7 7 7 8 8 9 9 9 9 8 12 16 11 8 10 7 6 6 7 7 8 8 8 9 10 11 10 11 8 7 12 7 9 14 15 14 14 16 15 15 15 15 16 15 15 16 15 16 17
9 9 9 8 8 8 7 6 7 7 7 7 7 7 7 7 7 7 9 9 10 9 10 9 15 14 16 15 9 9 7 6 6 7 8 8 8 8 10 11 10 12 12 14 15 15 16 16 17 15 15 15 14 14 13 14 15 16 16 15 17 16 16
10 10 9 9 8 8 7 7 6 6 7 7 7 6 7 6 6 6 7 9 10 10 10 12 14 15 15 17 14 10 6 6 6 7 8 8 7 8 9 9 9 9 10 14 15 14 17 17 16 16 16 17 16 14 11 9 12 14 15 17 16 16 16
10 9 9 8 8 8 7 6 6 6 7 7 6 7 6 6 6 6 7 9 10 11 11 12 14 15 15 16 16 12 5 6 7 7 7 9 8 9 8 9 11 10 11 16 14 15 16 16 17 18 16 15 16 17 16 16 13 12 14 15 17 17 15
10 10 9 8 7 8 7 6 5 5 6 6 6 6 6 7 6 6 6 8 9 10 12 12 14 15 15 18 17 14 5 5 6 6 8 8 8 9 11 11 10 10 11 13 14 16 17 17 16 15 15 15 16 18 18 18 16 16 15 15 16 18 19
10 9 9 8 8 7 6 5 5 5 5 5 5 6 6 6 6 6 6 6 8 9 9 12 14 16 16 18 19 16 5 6 7 7 6 9 9 10 10 9 10 11 12 12 12 16 16 16 16 14 15 16 17 17 17 16 17 17 17 16 17 18 19
9 9 9 8 8 7 6 6 5 5 5 5 5 5 6 6 7 7 6 6 6 8 9 12 13 14 16 18 19 8 8 6 7 7 7 9 8 8 8 9 10 11 13 12 15 19 17 15 15 16 16 17 18 18 16 16 15 14 15 16 17 18 19
10 9 9 8 8 7 6 5 5 4 5 4 5 5 6 6 6 7 7 6 6 7 9 10 12 13 15 17 14 8 8 8 7 8 6 9 9 8 9 8 9 11 12 13 17 20 20 17 15 16 17 17 18 18 18 18 18 18 18 20 21 22 23
10 9 8 8 8 6 6 5 4 3 4 4 5 5 5 5 6 7 8 8 6 6 8 9 10 11 14 16 16 10 9 9 8 8 8 9 9 8 8 10 9 11 14 15 19 20 21 17 15 16 16 18 19 20 19 19 17 15 19 19 20 19 20
10 9 9 8 6 6 5 4 4 4 4 4 4 5 5 5 5 5 6 7 6 5 7 8 9 10 11 13 13 10 9 9 8 9 9 9 9 8 10 5 9 11 12 16 19 20 21 17 13 15 15 18 19 20 20 19 19 20 19 19 18 20 19
9 9 9 8 6 5 4 4 3 3 3 4 4 4 4 5 4 4 4 5 6 6 6 6 7 8 9 10 12 11 8 9 10 10 10 9 9 9 9 9 8 12 16 17 20 20 21 19 13 13 14 17 17 18 17 16 16 17 20 19 20 20 18
9 9 8 7 6 5 5 4 4 4 5 4 4 3 2 3 3 3 3 2 3 3 4 5 6 7 8 9 9 9 8 9 10 10 10 10 9 9 9 9 9 12 16 19 19 21 20 21 18 12 14 15 14 16 16 13 21 23 19 17 16 18 17
9 7 7 7 6 5 5 4 3 4 4 4 4 3 2 2 2 2 2 3 2 2 4 3 5 7 6 9 9 8 7 9 9 10 10 10 9 9 9 9 10 13 16 19 20 20 21 19 21 11 14 17 21 19 13 14 18 18 20 18 16 17 17
8 7 7 7 6 6 5 5 4 4 4 4 3 3 3 1 2 2 1 2 2 3 3 6 5 6 6 7 9 9 7 7 9 9 9 10 10 10 9 10 12 15 18 19 19 19 19 21 14 13 21 19 19 22 16 16 18 18 16 16 16 17 19
8 7 7 7 6 6 5 4 4 3 1 2 2 2 2 2 2 2 2 3 3 3 4 4 6 7 6 4 9 8 9 9 8 8 10 9 9 10 10 11 13 19 19 18 18 18 18 15 11 18 18 17 18 15 13 19 16 16 15 16 17 17 15
Wind_Direction
91 96 89 78 80 86 75 66 71 61 43 34 32 31 22 23 19 22 21 17 7 4 354 15 5 4 355 355 357 354 351 349 343 340 335 338 342 332 345 335 335 326 324 319 316 313 306 309 313 317 309 318 321 313 304 302 308 309 301 295 286 268 235
88 97 100 94 86 81 75 65 59 72 70 48 36 30 30 33 30 33 31 28 21 15 14 20 9 11 7 4 10 359 8 356 353 358 350 350 343 343 338 338 328 329 330 326 325 328 321 315 307 313 318 322 316 308 313 319 311 304 300 295 285 287 281
109 101 103 105 103 92 82 76 68 60 58 57 48 37 32 40 35 33 34 31 25 20 16 14 8 8 8 7 13 1 17 3 11 5 6 1 350 348 346 338 338 340 337 337 335 333 324 318 312 312 316 320 316 316 319 313 317 318 310 297 286 274 267
102 109 111 111 108 104 92 83 77 69 60 55 52 46 34 35 37 36 31 31 29 19 16 12 10 7 0 11 11 11 23 11 14 1 17 10 359 357 352 346 345 346 341 334 339 339 329 320 317 312 314 310 308 309 314 322 320 313 309 300 289 274 272
104 101 97 96 93 93 94 96 91 80 69 67 58 50 38 30 37 35 30 30 30 22 18 13 14 8 1 16 20 12 20 17 15 6 18 10 6 358 359 351 350 346 346 347 344 337 333 328 323 315 314 320 313 310 315 310 306 307 305 304 302 291 275
81 96 100 93 90 92 90 85 79 76 73 65 52 53 43 37 36 37 35 30 28 25 20 14 18 15 0 26 24 16 23 15 16 7 20 7 14 1 356 352 345 345 357 354 344 338 335 332 326 321 322 323 314 313 312 313 310 312 310 311 310 319 318
88 87 90 92 91 90 91 91 87 84 80 68 60 50 43 43 43 41 36 35 29 27 23 19 21 21 10 22 29 19 21 15 13 7 20 10 12 2 359 350 349 346 355 354 343 340 344 338 336 331 324 319 315 311 310 311 320 317 315 321 327 324 1
97 97 93 91 91 95 92 90 86 79 73 68 61 55 48 47 46 43 39 33 33 27 28 25 20 29 21 24 33 22 22 9 14 13 11 10 10 4 4 359 348 358 360 0 343 350 343 344 334 331 328 326 324 320 320 320 317 314 321 321 320 319 324
99 100 98 96 93 88 92 89 80 73 74 73 63 59 51 45 41 44 43 41 31 32 29 28 27 26 26 25 30 25 21 9 15 18 13 9 10 360 6 357 355 2 10 355 350 350 348 348 337 334 333 329 330 324 324 318 318 310 321 315 314 315 321
95 94 94 94 92 91 86 82 79 78 75 68 69 59 56 52 46 39 46 37 36 33 30 27 28 26 26 26 24 25 16 10 13 18 13 11 9 2 7 0 359 3 11 351 357 355 349 344 341 336 332 330 329 322 323 319 316 319 320 323 318 317 324
101 97 98 95 94 93 90 85 83 78 72 74 73 68 62 59 52 48 44 42 39 36 31 27 27 26 24 28 20 27 15 8 14 16 14 11 9 5 5 3 8 5 6 351 355 353 347 346 344 340 335 333 330 325 321 314 310 311 311 317 315 315 321
92 92 90 87 85 84 81 81 79 78 78 73 71 69 66 57 57 52 45 46 37 40 35 31 24 27 22 23 20 18 16 13 13 14 17 12 12 7 4 6 14 7 5 351 353 352 352 352 346 339 337 337 332 326 323 316 308 307 319 313 314 313 314
94 93 90 87 86 85 86 86 83 79 76 75 69 63 61 61 57 56 51 45 46 38 38 31 24 25 23 23 20 16 14 13 14 16 13 14 14 10 8 9 17 6 3 352 358 352 355 356 352 344 338 336 331 329 323 316 306 304 311 309 309 310 311
90 89 87 87 86 83 81 77 75 77 75 69 69 66 60 58 56 50 52 48 40 39 36 30 23 22 21 20 22 17 9 15 10 16 6 13 16 11 10 7 15 10 2 356 2 354 359 355 346 337 335 332 329 328 326 320 311 308 307 310 310 307 312
91 89 89 87 87 84 81 79 81 79 73 66 62 62 63 56 56 58 51 46 42 38 32 30 21 20 19 15 20 16 12 10 12 13 9 13 15 12 8 7 10 9 7 1 2 357 0 355 349 343 343 339 333 331 328 320 314 309 308 312 310 311 307
96 94 90 87 85 84 80 79 75 80 78 75 62 58 61 59 53 53 52 48 43 35 30 24 21 18 17 13 13 17 13 13 10 12 10 14 11 11 9 8 11 11 11 3 3 358 356 352 346 341 339 336 332 329 328 325 318 312 311 310 312 310 312
97 94 90 85 83 81 83 81 78 71 68 70 74 64 56 57 58 52 48 47 43 35 28 22 20 13 16 5 10 10 9 13 9 12 11 11 11 12 9 9 11 11 10 4 4 356 353 347 343 341 335 333 327 325 322 319 316 312 311 310 311 311 311
95 91 89 89 87 87 81 78 75 76 73 67 63 63 59 59 60 55 49 43 40 36 27 21 15 9 7 4 1 6 8 10 10 11 9 12 17 11 8 12 9 13 9 5 1 354 349 343 341 337 333 328 324 323 320 318 314 311 310 308 309 311 310
99 97 96 92 90 87 87 84 80 71 67 71 67 64 63 52 52 58 52 45 39 34 29 20 14 6 1 1 359 359 8 6 7 10 10 13 16 13 10 7 12 14 10 3 358 351 347 342 339 336 333 328 325 322 321 317 313 313 311 309 310 310 312
102 100 97 95 94 89 83 81 77 71 67 65 66 67 65 65 59 56 56 48 39 33 27 20 13 4 1 360 352 354 9 8 8 16 14 11 18 11 11 7 12 12 4 2 355 348 343 341 337 333 330 329 326 324 320 318 317 316 314 312 309 308 309
108 104 102 100 95 94 91 84 77 73 66 60 60 60 61 66 68 62 59 52 43 35 26 22 16 5 359 355 341 356 11 11 4 18 15 16 16 11 11 9 10 12 1 355 350 343 339 339 337 331 330 327 326 323 321 319 319 316 313 311 308 310 308
113 113 108 102 97 88 81 76 76 76 74 68 59 59 61 61 64 67 63 54 47 37 29 23 17 360 356 353 339 354 10 8 6 18 13 15 13 17 8 7 7 7 344 332 319 313 323 322 339 332 330 328 324 323 319 319 317 316 314 312 310 308 308
115 113 109 103 96 90 85 80 77 72 66 65 62 62 61 58 63 65 58 54 49 39 30 25 357 351 352 353 336 342 358 10 7 17 16 10 14 12 5 8 1 355 312 344 342 353 12 354 339 328 327 326 322 317 314 312 316 317 314 313 311 312 308
117 110 105 101 101 96 88 82 74 68 64 61 62 61 60 66 63 62 64 55 46 41 32 14 354 356 347 348 345 327 334 12 8 11 17 7 6 12 9 5 355 345 349 357 351 24 1 341 334 332 321 305 292 291 300 306 313 315 313 308 308 305 302
117 115 114 108 102 96 92 86 78 72 72 68 64 65 64 62 68 71 69 61 49 40 34 11 359 356 351 345 343 330 331 15 4 2 21 355 2 11 6 358 351 349 0 351 356 2 349 339 334 327 313 300 294 288 279 286 304 310 309 309 305 303 300
117 112 103 100 99 98 96 93 87 81 76 74 71 65 61 61 61 66 75 67 53 41 32 12 357 357 350 346 337 329 343 19 8 0 9 352 1 8 358 6 359 351 2 350 5 359 347 340 336 327 319 329 329 327 320 306 295 293 307 305 304 300 299
115 119 126 130 123 109 102 95 94 91 91 84 79 77 68 60 60 61 63 71 63 47 33 4 358 358 351 348 336 330 340 6 9 359 12 352 5 2 12 14 356 352 357 351 8 355 344 341 337 333 339 338 334 330 326 322 318 317 315 310 306 303 301
136 136 128 118 109 105 103 105 101 95 89 83 78 75 71 68 59 55 60 72 70 55 37 11 2 357 355 349 341 316 15 354 10 1 359 0 355 14 27 7 356 352 355 352 3 349 339 337 334 335 339 338 336 333 329 324 323 320 317 312 308 302 300
129 127 124 121 117 113 110 106 103 101 100 94 88 84 79 72 63 56 54 62 72 58 44 23 5 1 354 352 337 327 18 355 3 353 7 3 340 10 12 8 358 356 353 352 353 342 335 332 332 340 341 339 337 335 332 327 319 316 307 304 302 298 294
134 131 125 122 119 119 123 121 112 110 102 100 98 89 86 79 70 61 50 48 64 65 48 27 12 3 356 353 345 349 16 5 0 355 354 5 346 5 15 6 5 358 354 350 343 335 332 334 336 341 341 339 340 338 336 336 332 322 308 295 289 286 285
137 133 132 123 120 123 125 120 110 102 100 101 94 94 94 90 90 76 62 50 38 67 59 45 20 7 358 358 348 350 14 8 358 347 348 11 346 4 25 105 25 8 355 345 336 330 330 333 335 338 334 340 343 341 340 338 331 320 306 303 307 305 304
138 137 129 126 129 131 127 124 131 134 122 113 104 97 85 89 94 94 88 75 39 46 66 64 37 13 5 358 354 351 10 9 1 351 342 7 349 3 357 49 74 30 358 335 330 328 325 327 326 328 331 343 342 340 341 331 327 325 326 325 323 324 316
137 136 132 135 138 130 125 117 110 102 93 89 88 88 101 93 87 87 105 103 78 53 55 63 59 25 11 358 357 344 7 9 359 347 334 351 351 353 355 352 3 27 350 332 326 321 320 317 317 314 322 340 336 331 331 320 326 331 328 327 323 321 314
139 137 136 138 138 137 126 124 122 113 94 80 84 90 99 108 111 116 101 102 118 94 55 49 99 49 19 356 347 352 356 8 357 343 329 338 352 348 349 350 344 360 338 325 318 316 311 314 311 305 320 334 317 306 303 317 338 337 330 324 319 318 318
139 139 140 142 142 132 134 138 140 132 112 109 103 85 62 82 86 92 128 131 91 140 137 29 41 97 37 354 341 335 345 355 346 332 332 335 341 345 345 343 346 340 325 315 313 310 309 308 309 293 321 315 301 297 297 322 340 337 337 330 322 321 322
143 144 147 150 143 139 141 132 128 129 146 143 136 142 112 98 100 75 70 65 84 54 117 146 40 40 51 356 338 328 309 296 312 311 335 328 336 338 340 338 336 324 313 308 306 305 303 308 299 322 316 308 300 297 290 341 343 341 335 329 324 323 323
149 152 156 157 154 159 151 155 161 128 155 163 130 113 93 91 68 63 34 48 47 48 37 105 125 65 31 10 329 318 304 293 282 315 318 313 330 338 334 330 313 304 301 299 298 301 303 301 317 314 310 310 310 308 334 342 342 336 332 329 328 323 317